Weather History for West Plains, MO

Change the Weather History Date:

Thursday, May 24, 2012

  Actual Average Record
Temperature  
Mean Temperature 76 °F 68 °F  
Max Temperature 86 °F 78 °F 94 °F (2000)
Min Temperature 65 °F 57 °F 39 °F (1961)
Degree Days  
Heating Degree Days 0 2  
Month to date heating degree days 20 74  
Since 1 July heating degree days 3436 4336  
Cooling Degree Days 11 4  
Month to date cooling degree days 99 61  
Year to date cooling degree days 199 89  
Growing Degree Days 25 (Base 50)    
Moisture  
Dew Point 56 °F    
Average Humidity 51    
Maximum Humidity 66    
Minimum Humidity 35    
Precipitation  
Precipitation 0.00 in 0.12 in 1.15 in (1949)
Month to date precipitation 0.27 4.02  
Year to date precipitation 12.64 18.35  
Sea Level Pressure  
Sea Level Pressure 29.69 in    
Wind  
Wind Speed 12 mph (SSE)    
Max Wind Speed 22 mph    
Max Gust Speed 33 mph    
Visibility 10 miles    
Events      
T = Trace of Precipitation, MM = Missing Value Source: NWS Daily Summary

Daily Weather History Graph

Daily Weather History Graph

Search for Another Location

Airport:

Trip Planner

Search our weather history database for the weather conditions in past years. The results will help you decide how hot, cold, wet, or windy it might be!

Date:

Astronomy

May. 24, 2012 Rise Set
Actual Time 5:53 AM CDT 8:16 PM CDT
Civil Twilight 5:23 AM CDT 8:45 PM CDT
Nautical Twilight 4:47 AM CDT 9:22 PM CDT
Astronomical Twilight 4:06 AM CDT 10:02 PM CDT
Moon 8:52 AM CDT 11:18 PM CDT
Length of Visible Light 15h 22m
Length of Day
14h 22m
Waxing Crescent, 12% of the Moon is Illuminated
May 24
Waxing Crescent
May 28
First Quarter
Jun 4
Full
Jun 11
Last Quarter
Jun 19
New

Hourly Weather History & Observations

Time (CDT) Temp. Heat Index Dew Point Humidity Pressure Visibility Wind Dir Wind Speed Gust Speed Precip Events Conditions
12:53 AM 69.1 °F - 45.0 °F 42% 29.72 in 10.0 mi SE 8.1 mph - N/A   Clear
1:53 AM 69.1 °F - 45.0 °F 42% 29.70 in 10.0 mi SSE 11.5 mph 17.3 mph N/A   Clear
2:53 AM 68.0 °F - 46.9 °F 47% 29.68 in 10.0 mi SE 9.2 mph - N/A   Clear
3:53 AM 66.9 °F - 48.0 °F 51% 29.68 in 10.0 mi SE 8.1 mph 17.3 mph N/A   Clear
4:53 AM 66.0 °F - 50.0 °F 56% 29.67 in 10.0 mi SSE 8.1 mph - N/A   Clear
5:53 AM 64.9 °F - 51.1 °F 61% 29.68 in 10.0 mi South 9.2 mph - N/A   Clear
6:53 AM 66.0 °F - 53.1 °F 63% 29.68 in 10.0 mi SSE 10.4 mph - N/A   Clear
7:53 AM 69.1 °F - 57.0 °F 65% 29.68 in 10.0 mi SSE 11.5 mph 19.6 mph N/A   Clear
8:53 AM 73.0 °F - 57.0 °F 57% 29.68 in 10.0 mi South 13.8 mph 24.2 mph N/A   Clear
9:53 AM 77.0 °F - 57.0 °F 50% 29.68 in 10.0 mi South 19.6 mph 27.6 mph N/A   Clear
10:53 AM 80.1 °F 80.0 °F 54.0 °F 40% 29.69 in 10.0 mi South 20.7 mph 31.1 mph N/A   Clear
11:53 AM 82.0 °F 81.3 °F 54.0 °F 38% 29.69 in 10.0 mi South 20.7 mph 31.1 mph N/A   Clear
12:53 PM 84.0 °F 82.9 °F 55.0 °F 37% 29.67 in 10.0 mi South 18.4 mph 27.6 mph N/A   Clear
1:53 PM 86.0 °F 84.5 °F 55.0 °F 35% 29.66 in 10.0 mi South 21.9 mph 31.1 mph N/A   Clear
2:53 PM 84.0 °F 83.5 °F 57.9 °F 41% 29.65 in 10.0 mi SSE 17.3 mph 26.5 mph N/A   Clear
3:53 PM 86.0 °F 85.0 °F 57.9 °F 38% 29.64 in 10.0 mi South 20.7 mph 33.4 mph N/A   Clear
4:53 PM 84.9 °F 84.2 °F 57.9 °F 40% 29.65 in 10.0 mi South 15.0 mph 27.6 mph N/A   Clear
5:53 PM 84.9 °F 84.4 °F 59.0 °F 41% 29.66 in 10.0 mi South 13.8 mph 21.9 mph N/A   Clear
6:53 PM 82.9 °F 83.2 °F 60.1 °F 46% 29.66 in 10.0 mi South 10.4 mph 20.7 mph N/A   Mostly Cloudy
7:53 PM 82.0 °F 82.7 °F 61.0 °F 49% 29.67 in 10.0 mi South 8.1 mph 19.6 mph N/A   Overcast
8:53 PM 80.1 °F 81.2 °F 62.1 °F 54% 29.69 in 10.0 mi South 6.9 mph - N/A   Overcast
9:53 PM 80.1 °F 81.5 °F 63.0 °F 56% 29.73 in 10.0 mi South 10.4 mph - N/A   Overcast
10:53 PM 80.1 °F 81.5 °F 63.0 °F 56% 29.77 in 10.0 mi South 6.9 mph - N/A   Overcast
11:53 PM 78.1 °F - 64.0 °F 62% 29.79 in 10.0 mi Calm Calm - N/A   Overcast